#timestamp,LO_Frequency,Hit 
1502197215.9,286046905.4,N
1502197235.7,286046907.6,N
1502197255.5,286046908.2,N
1502197275.3,286046906.1,N
1502197295.2,286046906.0,N
1502197315.0,286046905.6,N
1502197315.9,286046905.6,N
1502197335.7,286046908.0,N
1502197355.6,286046908.3,N
1502197375.4,286046906.0,N
1502197395.2,286046906.8,N
1502197415.1,286046903.8,N
1502197416.0,286046903.8,N
1502197435.8,286046906.7,N
1502197455.6,286046903.8,N
1502197475.5,286046904.5,N
1502197495.3,286046904.0,N
1502197515.1,286046904.2,N
1502197535.8,286046906.4,N
1502197555.7,286046903.7,N
1502197575.5,286046904.3,N
1502197595.3,286046906.8,N
1502197615.2,286046906.5,N
1502197635.9,286046906.2,N
1502197655.7,286046904.2,N
1502197675.6,286046906.4,N
1502197695.4,286046906.8,N
1502197715.2,286046906.1,N
1502197735.1,286046906.8,N
1502197736.0,286046906.8,N
1502197755.8,286046906.1,N
1502197775.6,286046906.6,N
1502197795.5,286046903.8,N
1502197815.3,286046904.2,N
1502197835.1,286046905.0,N
1502197855.8,286046904.7,N
1502197875.7,286046902.8,N
1502197895.5,286046903.5,N
1502197915.3,286046903.3,N
1502197935.2,286046903.3,N
1502197955.9,286046902.3,N
1502197975.7,286046902.3,N
1502197995.6,286046903.3,N
1502198015.4,286046902.7,N
1502198035.2,286046902.8,N
1502198055.1,286046902.8,N
1502198056.0,286046902.8,N
1502198075.8,286046902.6,N
1502198095.6,286046902.4,N
1502198115.4,286046903.3,N
1502198135.3,286046901.0,N
1502198155.1,286046902.3,N
1502198175.8,286046900.8,N
1502198195.7,286046899.0,N
1502198215.5,286046901.1,N
1502198235.3,286046901.4,N
1502198255.2,286046901.3,N
1502198275.9,286046901.8,N
1502198295.7,286046899.3,N
1502198315.6,286046898.3,N
1502198335.4,286046897.7,N
1502198355.2,286046898.1,N
1502198375.0,286046898.2,N
1502198376.0,286046898.2,N
1502198395.8,286046897.9,N
1502198415.6,286046897.7,N
1502198435.4,286046897.7,N
1502198455.3,286046897.8,N
1502198475.1,286046900.4,N
1502198495.8,286046897.9,N
1502198515.7,286046900.2,N
1502198535.5,286046897.8,N
1502198555.3,286046897.9,N
1502198575.2,286046897.9,N
1502198595.9,286046895.9,N
1502198615.7,286046896.0,N
1502198635.6,286046897.0,N
1502198655.4,286046896.9,N
1502198675.2,286046897.0,N
1502198695.0,286046895.9,N
1502198695.9,286046895.9,N
1502198715.8,286046896.8,N
1502198735.6,286046896.3,N
1502198755.4,286046898.8,N
1502198775.3,286046897.0,N
1502198795.1,286046897.2,N
1502198815.8,286046897.2,N
1502198835.7,286046897.0,N
1502198855.5,286046896.7,N
1502198875.3,286046894.6,N
1502198895.2,286046895.1,N
1502198915.9,286046894.6,N
1502198935.7,286046892.7,N
1502198955.5,286046893.4,N
1502198975.4,286046890.9,N
1502198995.2,286046893.1,N
1502199015.0,286046894.5,N
1502199015.9,286046894.5,N
1502199035.8,286046898.7,N
1502199055.6,286046894.9,N
1502199075.4,286046893.0,N
1502199095.3,286046893.7,N
1502199115.1,286046891.4,N
1502199135.8,286046890.9,N
1502199155.7,286046891.2,N
1502199175.5,286046892.1,N
1502199195.3,286046891.0,N
1502199215.2,286046893.0,N
1502199235.9,286046893.5,N
1502199255.7,286046893.6,N
1502199275.5,286046893.9,N
1502199295.4,286046890.9,N
1502199315.2,286046890.9,N
1502199335.0,286046893.9,N
1502199335.9,286046893.9,N
1502199355.8,286046891.0,N
1502199375.6,286046891.4,N
1502199395.4,286046893.9,N
1502199415.3,286046890.9,N
1502199435.1,286046891.8,N
1502199436.0,286046891.8,N
1502199455.8,286046891.6,N
1502199475.7,286046889.5,N
1502199495.5,286046889.6,N
1502199515.3,286046889.9,N
1502199535.1,286046889.3,N
1502199555.9,286046892.0,N
1502199575.7,286046891.9,N
1502199595.5,286046891.5,N
1502199615.4,286046889.8,N
1502199635.2,286046890.2,N
1502199655.0,286046890.4,N
1502199655.9,286046890.4,N
1502199675.8,286046888.1,N
1502199695.6,286046888.2,N
1502199715.4,286046888.9,N
1502199735.3,286046888.8,N
1502199755.1,286046888.0,N
1502199756.0,286046888.0,N
1502199775.8,286046888.2,N
1502199795.7,286046888.3,N
1502199815.5,286046888.4,N
1502199835.3,286046888.2,N
1502199855.1,286046890.2,N
1502199875.9,286046891.0,N
1502199895.7,286046893.0,N
1502199915.5,286046890.9,N
1502199935.4,286046891.3,N
1502199955.2,286046892.1,N
1502199975.0,286046892.2,N
1502199975.9,286046892.2,N
1502199995.8,286046892.0,N
1502200015.6,286046889.7,N
1502200035.4,286046888.5,N
1502200055.3,286046888.0,N
1502200075.1,286046887.9,N
1502200076.0,286046887.9,N
1502200095.8,286046886.1,N
1502200115.7,286046887.8,N
1502200135.5,286046887.7,N
1502200155.3,286046888.4,N
1502200175.1,286046888.5,N
1502200195.9,286046886.4,N
1502200215.7,286046887.5,N
1502200235.5,286046887.4,N
1502200255.4,286046885.4,N
1502200275.2,286046887.4,N
1502200295.0,286046885.0,N
1502200295.9,286046885.0,N
1502200315.8,286046888.6,N
1502200335.6,286046888.3,N
1502200355.4,286046886.3,N
1502200375.3,286046884.6,N
1502200395.1,286046886.1,N
1502200396.0,286046886.1,N
1502200415.8,286046886.1,N
1502200435.6,286046885.0,N
1502200455.5,286046887.4,N
1502200475.3,286046886.5,N
1502200495.1,286046887.2,N
1502200515.9,286046885.9,N
1502200535.7,286046885.8,N
1502200555.5,286046884.1,N
1502200575.4,286046881.6,N
1502200595.2,286046885.2,N
1502200615.0,286046885.5,N
1502200615.9,286046885.5,N
1502200635.8,286046883.4,N
1502200655.6,286046883.1,N
1502200675.4,286046883.5,N
1502200695.3,286046881.8,N
1502200715.1,286046883.2,N
1502200716.0,286046883.2,N
1502200735.8,286046884.1,N
1502200755.6,286046884.4,N
1502200775.5,286046882.3,N
1502200795.3,286046879.8,N
